Flag for France Weather past 2 weeks in Grenoble, France

Now
66 °F

Clear.


Feels Like: 66 °F
Forecast: 60 / 89 °F
Wind: 2 mph from North

Location: Grenoble / St. Geoirs

Current Time: Jun 3, 2015 at 11:58:58 PM

Latest Report: Jun 3, 2015 at 11:00 PM


Visibility: 10 mi

Pressure: 30.24 "Hg

Humidity: 60%

Dew point: 52 °F

Location of GrenobleLocation

Historic Weather in Grenoble — Graph

°F

Grenoble temperature yesterday

Maximum temperature yesterday: 82 °F (at 5:00 PM)
Minimum temperature yesterday: 57 °F (at 1:30 AM)
Average temperature yesterday: 70 °F

Past Weeks' High & Low Weather Summary

 TemperatureHumidityPressure
High82 °F (Jun 2, 5:00 PM)100% (May 28, 6:30 AM)30.24 "Hg (May 28, 6:30 AM)
Low39 °F (May 28, 5:00 AM)17% (May 28, 6:00 PM)29.89 "Hg (May 29, 5:00 PM)
Average60 °F62%30.07 "Hg
* Reported May 19 11:00 PM — Jun 3 11:00 PM, Grenoble, Weather by CustomWeather, © 2015

Note: Actual official high and low records may vary slightly from our data, if they occured in-between our weather recording intervals... More about our weather records

Advertising

Grenoble weather history for previous 24 hours

 ConditionsComfort  
Time TempWeatherWind HumidityBarometerVisibility
11:00 PM
Wed, Jun 3
66 °FClear.2 mph60%30.24 "Hg10 mi
10:30 PM68 °FClear.3 mph56%30.21 "Hg10 mi
10:00 PM70 °FSunny.3 mph57%30.21 "Hg10 mi
9:30 PM72 °FSunny.1 mph53%30.21 "Hg10 mi
9:00 PM77 °FSunny.2 mph42%30.21 "Hg10 mi
8:30 PM77 °FSunny.3 mph44%30.18 "Hg10 mi
8:00 PM79 °FPassing clouds.6 mph42%30.18 "HgN/A
7:30 PM81 °FPassing clouds.6 mph37%30.18 "HgN/A
7:00 PM81 °FSunny.7 mph34%30.18 "Hg10 mi
6:30 PM82 °FPassing clouds.6 mph32%30.18 "HgN/A
6:00 PM82 °FSunny.7 mph28%30.18 "Hg10 mi
5:30 PM82 °FPassing clouds.7 mph28%30.21 "HgN/A
5:00 PM82 °FPassing clouds.7 mph32%30.21 "HgN/A
4:30 PM82 °FPassing clouds.8 mph35%30.21 "HgN/A
4:00 PM82 °FPassing clouds.7 mph30%30.21 "HgN/A
3:30 PM82 °FPassing clouds.7 mph32%30.21 "HgN/A
3:00 PM82 °FPassing clouds.7 mph28%30.21 "HgN/A
2:30 PM82 °FPassing clouds.7 mph37%30.21 "HgN/A
2:00 PM81 °FPassing clouds.6 mph42%30.21 "HgN/A
1:30 PM81 °FScattered clouds.5 mph42%30.21 "HgN/A
1:00 PM81 °FSunny.3 mph48%30.24 "Hg10 mi
12:30 PM79 °FPassing clouds.6 mph45%30.24 "HgN/A
12:00 PM79 °FSunny.2 mph51%30.24 "Hg10 mi
11:30 AM77 °FSunny.2 mph51%30.24 "Hg10 mi
11:00 AM75 °FSunny.1 mph54%30.24 "Hg10 mi
10:30 AM73 °FSunny.3 mph53%30.24 "Hg10 mi
10:00 AM73 °FSunny.No wind50%30.24 "Hg10 mi
9:30 AM72 °FSunny.1 mph61%30.24 "Hg10 mi
9:00 AM70 °FSunny.2 mph64%30.24 "Hg10 mi
8:30 AM68 °FSunny.5 mph69%30.24 "Hg10 mi
8:00 AM66 °FSunny.3 mph73%30.21 "Hg10 mi
7:30 AM63 °FSunny.3 mph83%30.21 "Hg10 mi
7:00 AM57 °FSunny.5 mph94%30.21 "Hg10 mi
6:30 AM55 °FClear.6 mph94%30.21 "Hg10 mi
6:00 AM54 °FClear.6 mph94%30.21 "Hg10 mi
5:30 AM55 °FClear.6 mph94%30.21 "Hg10 mi
5:00 AM55 °FClear.6 mph94%30.18 "Hg10 mi
4:30 AM57 °FClear.3 mph88%30.18 "Hg10 mi
4:00 AM59 °FClear.2 mph82%30.18 "Hg10 mi
3:30 AM63 °FClear.3 mph77%30.18 "Hg10 mi
3:00 AM66 °FPassing clouds.6 mph68%30.18 "HgN/A
2:30 AM64 °FPassing clouds.5 mph73%30.18 "HgN/A
2:00 AM66 °FClear.2 mph68%30.18 "Hg10 mi
1:30 AM70 °FClear.No wind60%30.18 "Hg10 mi
1:00 AM72 °FClear.2 mph57%30.18 "Hg10 mi
12:30 AM72 °FClear.3 mph57%30.15 "Hg10 mi
12:00 AM68 °FClear.2 mph69%30.15 "Hg10 mi
11:30 PM
Tue, Jun 2
68 °FClear.3 mph69%30.15 "Hg10 mi
11:00 PM70 °FClear.3 mph60%30.15 "Hg10 mi
Weather by CustomWeather, © 2015

See weather overviewHow to use our weather pages